[[{"header":{"parameterUnit":"m.s-1","parameterCategory":1,"la1":30.2991,"la2":30.254,"lo1":-89.0895,"lo2":-89.0444,"dy":0.0017,"dx":0.0017,"nx":28,"ny":28,"refTime":"2023-09-10T09:00:00:Z","depth":0,"parameterNumber":2,"parameterNumberName":"U-component_of_WINDS"},"data":[0,0,0,0,0,0,0,0,0,0,0,0,0,0,0,0,0,0,0,0,0,0,0,0,0,0,0,0,0,0,0,0,0,0,0,0,0,0,0,0,0,0,0,0,0,0,0,0,0,0,0,0,0,0,0,0,0,0,-0.8796,-0.8797,0,-0.886,-0.8861,-0.8861,-0.8872,-0.8872,-0.8871,-0.8871,-0.8937,-0.8939,-0.8941,0,0,0,0,0,0,0,0,0,0,0,0,0,-0.8685,-0.8687,-0.8796,-0.8797,-0.8798,-0.886,-0.8861,-0.8862,-0.8873,-0.8872,-0.8871,-0.8871,-0.8936,-0.8939,-0.8942,0,0,0,0,0,0,0,0,0,0,0,0,0,-0.874,-0.8688,-0.8796,-0.8811,-0.8813,-0.886,-0.8861,-0.8862,-0.8873,-0.8872,-0.8871,-0.887,-0.8935,-0.8939,-0.8942,-0.8979,0,0,-0.8952,-0.8954,0,0,0,0,0,0,0,0,-0.8736,-0.8744,-0.8808,-0.881,-0.8812,-0.8857,-0.8846,-0.8901,-0.8873,-0.885,-0.8871,-0.887,-0.8911,-0.8916,-0.893,-0.8982,-0.8985,-0.8953,-0.8955,-0.8956,-0.8957,0,0,0,0,0,0,0,-0.8733,-0.8741,-0.8821,-0.8809,-0.8811,-0.8814,-0.8821,-0.8856,-0.8884,-0.8852,-0.8853,-0.886,-0.8912,-0.8927,-0.8932,-0.8986,-0.8953,-0.8956,-0.8958,-0.8959,-0.9072,-0.9073,0,0,0,0,0,0,-0.8726,-0.8738,-0.8819,-0.8823,-0.8771,-0.8817,-0.8825,-0.8844,-0.8884,-0.8889,-0.8861,-0.886,-0.8922,-0.8928,-0.8934,-0.8981,-0.8956,-0.8959,-0.8961,-0.9071,-0.9072,-0.9073,0,0,0,0,0,0,-0.8724,-0.8733,-0.8817,-0.8781,-0.8792,-0.882,-0.8841,-0.8845,-0.886,-0.8891,-0.8896,-0.8871,-0.8921,-0.8929,-0.8968,-0.8983,-0.8961,-0.8964,-0.907,-0.9071,-0.9072,-0.9073,0,0,0,0,0,0,-0.872,-0.8732,-0.8746,-0.8781,-0.8794,-0.8849,-0.8842,-0.8847,-0.8866,-0.8866,-0.8901,-0.8906,-0.8921,-0.8963,-0.8971,-0.8987,-0.8967,-0.9068,-0.907,-0.9072,-0.9072,-0.9074,-0.9077,0,0,0,0,0,-0.8716,-0.8744,-0.8747,-0.8757,-0.8812,-0.885,-0.8857,-0.8873,-0.8867,-0.8882,-0.8901,-0.8905,-0.898,-0.8966,-0.8976,-0.8993,-0.9067,-0.907,-0.9072,-0.9071,-0.9074,-0.9077,0,0,0,0,0,0,-0.8711,-0.8749,-0.8753,-0.8792,-0.8818,-0.8852,-0.8871,-0.8876,-0.8904,-0.8903,-0.8922,-0.893,-0.8967,-0.8984,-0.8969,-0.9032,-0.9023,-0.9027,-0.9019,-0.9022,-0.9025,-0.902,-0.8969,0,0,0,0,0,-0.8714,-0.8742,-0.8774,-0.8806,-0.8818,-0.8842,-0.8859,-0.887,-0.8897,-0.8908,-0.893,-0.8957,-0.8986,-0.9005,-0.9034,-0.9074,-0.9082,-0.9091,-0.9093,-0.9095,-0.9099,-0.9121,-0.9126,-0.908,-0.908,-0.908,0,0,-0.8722,-0.8746,-0.8762,-0.8805,-0.8826,-0.8855,-0.8851,-0.8881,-0.8903,-0.8912,-0.895,-0.8967,-0.8998,-0.9038,-0.9056,-0.9053,-0.9113,-0.9098,-0.9099,-0.9102,-0.9124,-0.9128,-0.9132,-0.9081,-0.9081,-0.9081,0,0,-0.875,-0.8771,-0.88,-0.8821,-0.8852,-0.8868,-0.8875,-0.8908,-0.892,-0.8958,-0.8966,-0.8992,-0.9042,-0.9064,-0.9081,-0.9118,-0.9122,-0.9126,-0.9139,-0.9161,-0.9165,-0.9168,-0.9181,-0.9186,-0.913,-0.913,-0.913,0,-0.8755,-0.8798,-0.8814,-0.8844,-0.8863,-0.8873,-0.8903,-0.8922,-0.8962,-0.8975,-0.897,-0.9034,-0.9055,-0.91,-0.9109,-0.9123,-0.9131,-0.9123,-0.9163,-0.9166,-0.9169,-0.9182,-0.9187,-0.913,-0.913,-0.913,-0.913,0,-0.8803,-0.8833,-0.8853,-0.889,-0.8911,-0.8941,-0.8962,-0.8981,-0.899,-0.9006,-0.9045,-0.9071,-0.9105,-0.9116,-0.9125,-0.9163,-0.916,-0.9159,-0.9151,-0.9174,-0.9186,-0.9191,-0.913,-0.913,-0.913,-0.913,0,0,-0.883,-0.8876,-0.8883,-0.89,-0.8936,-0.8959,-0.8989,-0.9023,-0.9039,-0.9066,-0.9092,-0.9134,-0.9134,-0.9154,-0.9165,-0.9184,-0.9212,-0.9181,-0.9182,-0.9186,-0.9255,-0.9256,-0.9261,-0.9215,-0.9216,-0.9217,-0.9253,0,-0.8863,-0.8917,-0.8932,-0.8978,-0.9006,-0.9015,-0.9042,-0.9066,-0.9082,-0.9108,-0.9126,-0.9156,-0.9153,-0.9165,-0.9184,-0.9204,-0.9226,-0.9202,-0.924,-0.9241,-0.9232,-0.9268,-0.9269,-0.9301,-0.9257,-0.9258,-0.9259,0,-0.8908,-0.8936,-0.8984,-0.9016,-0.9028,-0.9051,-0.9083,-0.9108,-0.9136,-0.9147,-0.9169,-0.9178,-0.921,-0.92,-0.9245,-0.9228,-0.9245,-0.9257,-0.9259,-0.9263,-0.9252,-0.9273,-0.9312,-0.9317,-0.9267,-0.9266,-0.9266,0,-0.8924,-0.8973,-0.9008,-0.9022,-0.906,-0.9076,-0.9093,-0.9121,-0.914,-0.9167,-0.918,-0.9211,-0.9229,-0.9253,-0.9271,-0.9262,-0.9314,-0.9305,-0.9324,-0.9323,-0.9335,-0.9334,-0.9377,-0.9345,-0.9345,-0.9345,-0.9344,0,-0.8959,-0.8988,-0.9015,-0.9037,-0.907,-0.9087,-0.912,-0.9137,-0.9161,-0.9187,-0.9197,-0.9221,-0.9243,-0.9269,-0.9283,-0.9319,-0.9326,-0.9336,-0.9339,-0.9335,-0.9334,-0.9347,-0.9345,-0.9346,-0.9346,-0.9345,-0.9345,0,-0.8982,-0.9001,-0.904,-0.9073,-0.9082,-0.9105,-0.9133,-0.9154,-0.917,-0.9203,-0.9211,-0.9237,-0.9269,-0.9289,-0.9329,-0.9339,-0.9378,-0.938,-0.9368,-0.937,-0.9387,-0.9386,-0.944,-0.9448,-0.941,-0.9411,-0.9411,0,-0.9003,-0.9026,-0.9061,-0.9078,-0.9095,-0.9123,-0.9143,-0.9161,-0.9181,-0.9214,-0.9232,-0.9265,-0.9292,-0.9343,-0.9365,-0.9396,-0.94,-0.9417,-0.9405,-0.94,-0.9401,-0.9399,-0.9402,-0.9419,-0.9419,-0.942,-0.942,0,-0.904,-0.9048,-0.9075,-0.9106,-0.9129,-0.9154,-0.9179,-0.9193,-0.9215,-0.9237,-0.9269,-0.929,-0.9332,-0.9364,-0.9397,-0.9415,-0.9421,-0.9423,-0.9429,-0.9426,-0.9418,-0.9423,-0.9374,-0.9422,-0.9422,-0.9422,-0.9422,-0.9422,-0.9063,-0.9084,-0.9111,-0.9141,-0.9162,-0.9185,-0.9207,-0.9226,-0.9253,-0.9288,-0.9297,-0.9331,-0.9359,-0.9404,-0.9422,-0.945,-0.9447,-0.9456,-0.9458,-0.946,-0.9461,-0.9413,-0.9456,-0.9456,-0.9456,-0.9456,-0.9456,0,-0.91,-0.9118,-0.9146,-0.918,-0.9204,-0.9207,-0.9235,-0.9255,-0.9285,-0.931,-0.9336,-0.9374,-0.9405,-0.943,-0.9462,-0.9479,-0.9483,-0.9487,-0.9486,-0.949,-0.9461,-0.9453,-0.9484,-0.9484,-0.9484,-0.9484,-0.9484,-0.9484,-0.9122,-0.9158,-0.9169,-0.9215,-0.9233,-0.9266,-0.9282,-0.9303,-0.9323,-0.9365,-0.9391,-0.9406,-0.9431,-0.9466,-0.9495,-0.9501,-0.9513,-0.9516,-0.9524,-0.9496,-0.9493,-0.949,-0.9482,-0.9519,-0.9519,-0.9551,-0.9551,-0.9551]},{"header":{"parameterUnit":"m.s-1","parameterCategory":1,"la1":30.2991,"la2":30.254,"lo1":-89.0895,"lo2":-89.0444,"dy":0.0017,"dx":0.0017,"nx":28,"ny":28,"refTime":"2023-09-10T09:00:00:Z","depth":0,"parameterNumber":3,"parameterNumberName":"V-component_of_WINDS"},"data":[0,0,0,0,0,0,0,0,0,0,0,0,0,0,0,0,0,0,0,0,0,0,0,0,0,0,0,0,0,0,0,0,0,0,0,0,0,0,0,0,0,0,0,0,0,0,0,0,0,0,0,0,0,0,0,0,0,0,3.2751,3.2751,0,3.2758,3.2758,3.2758,3.2711,3.2709,3.2708,3.2707,3.2712,3.2713,3.2715,0,0,0,0,0,0,0,0,0,0,0,0,0,3.2696,3.2698,3.2751,3.2751,3.2752,3.2758,3.2758,3.2758,3.2711,3.2709,3.2708,3.2706,3.2712,3.2713,3.2715,0,0,0,0,0,0,0,0,0,0,0,0,0,3.2713,3.2698,3.2751,3.2729,3.2727,3.2758,3.2758,3.2758,3.2711,3.2709,3.2707,3.2705,3.2711,3.2713,3.2715,3.2768,0,0,3.2721,3.2722,0,0,0,0,0,0,0,0,3.2712,3.2715,3.2732,3.273,3.2728,3.2731,3.274,3.2761,3.2712,3.2717,3.2707,3.2704,3.272,3.2721,3.2727,3.2768,3.2768,3.2722,3.2723,3.2724,3.2724,0,0,0,0,0,0,0,3.2711,3.2715,3.2754,3.2732,3.273,3.2718,3.2718,3.2744,3.273,3.2716,3.2713,3.2715,3.2719,3.2725,3.2727,3.2768,3.2722,3.2723,3.2725,3.2725,3.2852,3.2854,0,0,0,0,0,0,3.2713,3.2714,3.2754,3.2754,3.2715,3.272,3.2721,3.2732,3.2729,3.2727,3.2716,3.2712,3.2722,3.2724,3.2727,3.2787,3.2724,3.2726,3.2727,3.285,3.2852,3.2855,0,0,0,0,0,0,3.2712,3.2717,3.2753,3.2733,3.2737,3.2723,3.2737,3.2734,3.274,3.2729,3.2726,3.2725,3.2721,3.2724,3.2758,3.2786,3.2727,3.2728,3.2847,3.285,3.2853,3.2908,0,0,0,0,0,0,3.2711,3.2717,3.2737,3.2734,3.2738,3.2785,3.2739,3.2735,3.2744,3.2739,3.2737,3.2735,3.2719,3.2755,3.276,3.2788,3.273,3.2844,3.2849,3.2852,3.2904,3.2913,3.2921,0,0,0,0,0,3.2709,3.2753,3.2739,3.2744,3.2763,3.2787,3.2789,3.2771,3.2746,3.2766,3.2759,3.2735,3.2783,3.2759,3.2764,3.2793,3.2843,3.2847,3.2852,3.29,3.2911,3.292,0,0,0,0,0,0,3.2759,3.2752,3.2736,3.278,3.2784,3.2779,3.2803,3.2784,3.2795,3.2789,3.2766,3.2766,3.2804,3.2802,3.2776,3.2843,3.2808,3.2814,3.2843,3.2853,3.2862,3.286,3.2732,0,0,0,0,0,3.2776,3.2796,3.2788,3.2827,3.283,3.2817,3.2826,3.2812,3.2815,3.2817,3.2812,3.2816,3.2832,3.2843,3.2857,3.2904,3.2902,3.2927,3.2935,3.2942,3.2947,3.297,3.2981,3.287,3.287,3.287,0,0,3.2809,3.2807,3.2821,3.2837,3.2839,3.286,3.2818,3.2842,3.2857,3.282,3.2852,3.2849,3.2852,3.2892,3.291,3.2892,3.2977,3.2948,3.2954,3.2955,3.2976,3.2987,3.2996,3.2873,3.2873,3.2872,0,0,3.288,3.2882,3.2914,3.2917,3.292,3.291,3.2918,3.2916,3.2912,3.2944,3.2916,3.2934,3.2962,3.2965,3.297,3.3042,3.302,3.3048,3.3091,3.3114,3.3123,3.313,3.3155,3.3164,3.3053,3.3053,3.3053,0,3.2921,3.2951,3.2933,3.2958,3.2965,3.2934,3.2966,3.2969,3.2977,3.2983,3.2963,3.2997,3.2997,3.3037,3.3054,3.306,3.3067,3.3047,3.3123,3.3131,3.3137,3.316,3.317,3.3056,3.3056,3.3056,3.3055,0,3.3,3.3022,3.3048,3.3056,3.3066,3.3095,3.308,3.3093,3.3078,3.3071,3.3103,3.3102,3.3115,3.3123,3.3109,3.3161,3.315,3.3127,3.3091,3.3151,3.3172,3.3181,3.3061,3.306,3.3059,3.3058,0,0,3.3102,3.31,3.3109,3.3112,3.3114,3.313,3.3157,3.317,3.3181,3.3188,3.3209,3.3233,3.3212,3.3218,3.3204,3.3225,3.3281,3.3199,3.3199,3.3213,3.3336,3.3352,3.3362,3.3267,3.3268,3.327,3.3335,0,3.317,3.3216,3.32,3.3247,3.3266,3.3236,3.326,3.3263,3.3257,3.3272,3.3265,3.3283,3.3254,3.3257,3.3277,3.327,3.3305,3.3265,3.3285,3.3286,3.3283,3.3373,3.339,3.3452,3.3343,3.3345,3.3346,0,3.3255,3.3265,3.3313,3.3311,3.3318,3.334,3.335,3.3365,3.3368,3.3362,3.3369,3.3351,3.3376,3.3342,3.3376,3.335,3.3357,3.3355,3.3357,3.3357,3.3318,3.3374,3.3472,3.348,3.3359,3.3358,3.3357,0,3.3321,3.3347,3.3379,3.3383,3.3382,3.3397,3.3397,3.3399,3.3407,3.3416,3.3421,3.3433,3.344,3.3449,3.3434,3.3411,3.347,3.3435,3.3465,3.3465,3.3477,3.3476,3.3576,3.3485,3.3485,3.3485,3.3485,0,3.3398,3.3428,3.3409,3.3429,3.3462,3.3444,3.3477,3.3473,3.3475,3.3493,3.3469,3.3486,3.3466,3.3482,3.347,3.35,3.3503,3.3498,3.3495,3.3499,3.35,3.3502,3.3497,3.3488,3.3487,3.3487,3.3486,0,3.3477,3.3466,3.3498,3.3495,3.3495,3.3519,3.3515,3.3533,3.3526,3.3549,3.3553,3.3541,3.3558,3.3545,3.3561,3.3554,3.3592,3.3583,3.3591,3.3588,3.3618,3.3615,3.3721,3.3734,3.3637,3.3638,3.3639,0,3.3525,3.3548,3.3547,3.3557,3.3559,3.3576,3.3585,3.3568,3.3578,3.3583,3.36,3.3615,3.3625,3.3653,3.3646,3.3658,3.3648,3.3685,3.365,3.3654,3.3647,3.3645,3.3646,3.3691,3.3693,3.3693,3.3694,0,3.3612,3.3605,3.3619,3.3631,3.3642,3.365,3.3656,3.3666,3.3649,3.3661,3.3678,3.3687,3.3704,3.3718,3.3728,3.3727,3.3708,3.3706,3.3713,3.3717,3.372,3.3717,3.3608,3.3703,3.3702,3.3701,3.3701,3.37,3.3676,3.3694,3.3696,3.3712,3.3715,3.3722,3.3738,3.3733,3.3747,3.3759,3.3748,3.3768,3.377,3.3782,3.3784,3.3799,3.3783,3.3795,3.3797,3.3799,3.3803,3.3719,3.3801,3.38,3.38,3.38,3.38,0,3.3759,3.3759,3.3774,3.3784,3.3796,3.3778,3.3784,3.3795,3.3813,3.3817,3.3828,3.3847,3.3862,3.3856,3.3868,3.3881,3.3872,3.3885,3.3883,3.3883,3.3817,3.3808,3.3892,3.3892,3.3892,3.3892,3.3892,3.3892,3.3804,3.3834,3.3828,3.3859,3.3858,3.3878,3.3883,3.3889,3.3891,3.3914,3.3926,3.3922,3.3922,3.3934,3.3946,3.3944,3.3949,3.3964,3.3959,3.3897,3.3887,3.3879,3.3871,3.3966,3.3966,3.4023,3.4023,3.4024]}]]